Weather Roundup
Issued by NWS

Home | Current Version | Previous Version | Graphics & Text | Print | Product List | Glossary Off
Versions: 1 2 3 4 5 6 7 8 9 10 11 12 13 14 15 16 17 18 19 20 21 22 23 24 25 26 27 28 29 30 31 32 33 34 35 36 37 38 39 40 41 42 43 44 45 46 47 48 49 50

451
NZUS93 KARX 241310
HRRWXR

CURRENT HOURLY OBSERVATIONS ACROSS
MUCH OF THE UPPER MISSISSIPPI VALLEY
NATIONAL WEATHER SERVICE LA CROSSE WI
800 AM CDT SUN JUL 24 2016


...SOUTHEAST MINNESOTA...


CITY           SKY/WX    TMP DP  RH WIND       PRES   REMARKS
ROCHESTER      CLOUDY    77  75  93 NW10      29.84R
ROCHESTER/MAYO CLOUDY    76  76  98 W8        29.83R
WINONA         CLOUDY    77  73  88 CALM      29.79R
AUSTIN         CLOUDY    75  73  94 NW14G21   29.84R
ALBERT LEA     SUNNY     75  72  88 N10       29.86R
DODGE CENTER   PTSUNNY   75  70  83 NW10      29.85R
PRESTON        CLOUDY    76  74  92 W9        29.84R FOG
OWATONNA       SUNNY     75  70  83 W8        29.86R
FARIBAULT      SUNNY     75  70  83 NW7       29.86R
$$

...ELSEWHERE IN MINNESOTA...


CITY           SKY/WX    TMP DP  RH WIND       PRES   REMARKS
MINNEAPOLIS    MOSUNNY   76  70  82 NW8       29.83R
INTNL FALLS    PTSUNNY   67  62  84 W12       29.72R
DULUTH         CLOUDY    68  67  96 W9        29.78R
RED WING       PTSUNNY   77  73  88 NW6       29.80R
REDWOOD FALLS  MOSUNNY   72  62  71 NW10      29.91R
MANKATO        SUNNY     73  66  78 NW12      29.89R
WORTHINGTON    MOSUNNY   70  62  76 MISG      29.95R
FAIRMONT       SUNNY     73  48  40 NW12      29.89R
$$

...SOUTHWEST WISCONSIN...


CITY           SKY/WX    TMP DP  RH WIND       PRES   REMARKS
LA CROSSE      PTSUNNY   79  75  87 SW5       29.78S
PRAIRIE DU CHI SUNNY     82  75  80 S6        29.80F
BOSCOBEL       MOSUNNY   82  78  88 SW5       29.81R HX  91
LONE ROCK      CLOUDY    79  76  90 SW6       29.82S
PLATTEVILLE    SUNNY     79  79 100 SW8       29.85R
FORT MC COY    CLOUDY    77  74  91 SW5       29.79F
CAMP DOUGLAS   PTSUNNY   77  75  94 S5        29.79F
MAUSTON-NEW LI PTSUNNY   78  75  92 S7        29.79F FOG
VIROQUA        CLOUDY    77  77 100 SW6       29.83S
WIS DELLS      CLOUDY    76  73  90 SW5       29.84R
$$

...ELSEWHERE IN WISCONSIN...


CITY           SKY/WX    TMP DP  RH WIND       PRES   REMARKS
MILWAUKEE      LGT RAIN  75  71  87 SE6       29.89R
MADISON        CLOUDY    77  74  90 VRB5      29.84R
GREEN BAY      CLOUDY    73  73 100 S8        29.82F
EAU CLAIRE     CLOUDY    72  70  93 CALM      29.79R
BLACK RVR FLS  PTSUNNY   75  75 100 CALM      29.78R
MEDFORD        FOG       69  69 100 SE5       29.81S VSB 1/2
WAUSAU         FOG       71  71 100 S6        29.80S VSB 1/2
WIS RAPIDS     CLOUDY    75  72  90 S6        29.81S FOG
MARSHFIELD     FOG       72  70  93 CALM      29.81R VSB 1/2
RICE LAKE      PTSUNNY   69  66  90 CALM      29.83R
$$

...NORTHEAST IOWA...


CITY           SKY/WX    TMP DP  RH WIND       PRES   REMARKS
WATERLOO       SUNNY     80  75  84 SW9       29.81S
DUBUQUE        SUNNY     79  77  94 S9        29.85R
DECORAH        SUNNY     79  77  94 W7        29.82R
MASON CITY     PTSUNNY   75  72  90 NW16G26   29.88R
CHARLES CITY   CLOUDY    77  77 100 W6G12     29.84R
OELWEIN        SUNNY     79  77  94 SW9       29.84R
$$

...ELSEWHERE IN IOWA...


CITY           SKY/WX    TMP DP  RH WIND       PRES   REMARKS
DES MOINES     MOSUNNY   81  75  82 SW8       29.86R
IOWA CITY      SUNNY     82  77  84 SW8       29.85S HX  90
FORT DODGE     SUNNY     75  72  88 N6        29.91R
MARSHALLTOWN   SUNNY     80  77  90 SW8       29.84R
CEDAR RAPIDS   SUNNY     81  79  94 SW8       29.84R HX  90
$$

...NORTHERN ILLINOIS...


CITY           SKY/WX    TMP DP  RH WIND       PRES   REMARKS
CHICAGO-OHARE  PTSUNNY   75  71  87 S15       29.92R
CHICAGO-MIDWAY CLOUDY    76  70  82 S10       29.93R
MOLINE         SUNNY     83  76  79 S7        29.85S HX  91
ROCKFORD       MOSUNNY   78  71  79 MISG      29.89S
PEORIA         SUNNY     80  77  90 S7        29.92R
$$

NOTE: "FAIR" INDICATES FEW OR NO CLOUDS BELOW 12,000 FEET WITH NO
SIGNIFICANT WEATHER AND/OR OBSTRUCTIONS TO VISIBILITY. WIND
SPEEDS ARE IN MILES-PER-HOUR.




USA.gov is the U.S. government's official web portal to all federal, state and local government web resources and services.